Simultaneous Nadir Overpasses (SNOs) Predictions

Prediction of SNOs between AQUA and NOAA-19 Satellite Orbit:

Table of predicted SNOs for the next 14.0 days since TLE Epoch: 9/30/2016
Index Date (AQUA) Time (AQUA) Lat,Lon (AQUA) SZA (AQUA ) Date (NOAA-19) Time (NOAA-19) Lat,Lon (NOAA-19) SZA (NOAA-19 ) Distance(km) Time Diff (sec)
1 10/02/2016 12:34:14 81.35, -55.34 87.60 10/02/2016 12:33:10 80.97, -59.82 87.87 87.33 64
2 10/02/2016 13:23:22 -80.93, 118.93 93.37 10/02/2016 13:23:41 -80.92, 118.98 93.39 1.47 19
3 10/04/2016 18:07:40 -80.93, 47.82 92.54 10/04/2016 18:06:40 -80.93, 47.97 92.53 2.73 60
4 10/04/2016 18:57:06 80.91,-144.20 87.43 10/04/2016 18:57:39 80.91,-144.14 87.42 1.23 33
5 10/06/2016 23:41:24 80.92, 144.62 88.27 10/06/2016 23:40:39 80.93, 144.64 88.29 1.01 45
6 10/07/2016 00:30:50 -80.91, -47.69 91.73 10/07/2016 00:31:38 -80.91, -47.50 91.77 3.29 48
7 10/09/2016 05:15:08 -80.92,-118.92 90.89 10/09/2016 05:14:38 -80.93,-118.96 90.87 0.85 30
8 10/09/2016 06:04:35 80.93, 48.68 89.14 10/09/2016 06:05:39 80.92, 48.59 89.12 1.67 64
9 10/11/2016 10:48:52 80.92, -22.28 89.93 10/11/2016 10:48:38 80.93, -22.34 89.95 1.35 14




NCC Satellite Simultaneous Nadir Overpasses (SNOs) Prediction Service
